Location: ?ern� Novina
(50.6762°N, 14.8696°E)
Time: 02:54:53
(UTC+00:00)

SL-8 Rocket - Pass Details

Date: 03 March 2021
Orbit: 957 x 991 km, 82.9° (Epoch: 13 April)

Event Time Altitude Azimuth Distance (km) Brightness Sun altitude
Rises 18:07:06 0° 167° (SSE) 3,668 6.8 -13.7°
Reaches altitude 10° 18:09:41 10° 162° (SSE) 2,720 6.1 -14.1°
Maximum altitude 18:15:36 47° 90° (E) 1,260 4.2 -15.0°
Drops below altitude 10° 18:21:30 10° 19° (NNE) 2,716 6.2 -16.0°
Sets 18:24:05 0° 14° (NNE) 3,663 7.0 -16.4°
